Temperature
25 25 25 24 22 20 21 22 23 22 21 22 22 21 20 19 19 19 18 19 18 18 18 18 18 18 19 19 19 19 18 18 18 18 18 18 18 18 18 18 18 18 18 18 18 18 18 18 18
26 25 25 24 21 20 21 22 22 22 22 22 22 20 19 18 18 19 19 18 19 19 18 19 19 19 19 19 19 18 18 18 18 18 18 18 18 18 18 18 18 18 18 18 18 18 18 18 18
26 26 25 21 21 21 22 23 22 23 23 23 21 20 19 18 19 19 19 19 19 19 19 19 19 19 19 18 18 18 18 18 18 18 18 18 18 18 18 18 18 18 18 18 18 18 18 18 17
26 26 25 22 23 23 23 23 23 23 23 22 21 20 19 19 20 20 19 19 19 19 19 19 19 19 19 18 18 18 18 18 18 18 18 18 18 18 18 18 18 18 18 18 18 18 17 17 17
27 26 22 22 23 24 24 24 24 23 22 21 21 19 19 19 20 20 19 19 19 19 19 19 19 19 19 18 18 18 18 18 18 18 18 18 18 18 18 18 18 18 18 18 18 17 17 17 17
27 23 21 22 24 24 24 24 23 22 22 21 20 19 18 19 20 20 19 19 19 19 19 19 19 18 19 19 18 18 18 18 18 18 18 18 18 18 18 18 18 18 18 17 17 17 17 17 17
25 21 22 23 23 24 24 24 23 22 22 21 20 18 18 19 20 20 19 19 19 19 19 19 19 18 19 19 18 18 18 18 18 18 18 18 18 18 18 18 18 18 17 17 17 17 17 17 17
27 21 23 23 24 24 24 24 23 22 22 22 21 19 18 19 19 19 19 19 19 19 19 19 19 19 19 18 18 18 18 18 18 18 18 18 18 18 18 18 18 18 17 17 17 17 17 17 17
27 22 23 24 24 24 24 24 23 23 22 22 22 21 21 20 19 19 19 19 19 19 19 19 19 19 19 18 18 18 18 18 18 18 18 18 18 18 18 18 18 18 17 17 17 17 17 17 17
26 23 25 25 24 24 24 24 23 23 22 21 21 21 20 20 19 19 19 19 19 19 19 19 19 19 19 19 19 18 18 18 18 18 18 18 18 18 18 18 18 18 17 17 17 17 17 17 17
26 25 26 26 26 26 24 24 24 23 21 21 21 21 20 19 19 20 20 20 20 20 19 19 19 19 19 19 19 19 18 18 18 18 18 18 18 18 18 18 18 18 18 17 17 17 17 17 17
26 26 26 27 27 26 25 24 24 23 23 24 23 22 20 20 20 20 21 20 20 20 20 19 19 19 19 19 19 18 18 18 18 18 18 18 18 18 18 18 18 18 18 17 17 17 17 17 17
26 26 27 27 27 26 25 24 24 23 24 23 22 21 20 20 20 20 21 20 20 20 20 20 19 19 19 19 19 18 18 18 18 18 18 18 18 18 18 18 18 18 18 18 17 17 17 17 17
26 26 26 26 26 26 25 24 24 23 23 22 21 21 21 21 21 20 20 20 20 20 20 20 19 19 19 19 19 19 18 18 18 18 18 18 18 18 18 18 18 18 18 17 17 17 17 17 17
26 25 25 25 26 25 25 24 23 23 23 21 21 21 21 21 21 21 21 21 21 20 20 20 19 19 19 19 19 18 18 18 18 18 18 18 18 18 18 18 18 18 17 17 17 17 17 17 17
24 24 24 25 25 25 25 24 23 23 22 21 20 20 20 21 21 21 21 21 21 21 20 20 19 19 19 19 19 19 18 18 18 18 18 18 18 18 18 18 18 17 17 17 17 17 17 17 17
22 23 24 25 25 25 25 24 23 22 22 21 21 20 20 21 21 22 22 21 21 21 21 20 20 20 19 19 19 18 18 18 18 18 18 18 18 18 18 18 18 17 17 17 17 17 17 17 17
23 23 24 24 25 25 24 23 22 22 22 21 21 21 21 21 22 22 22 22 21 21 21 20 20 20 19 19 19 18 18 19 18 18 18 18 18 18 18 18 18 17 17 17 17 17 17 17 17
24 24 24 24 24 25 24 23 22 22 22 22 21 21 21 22 22 22 22 22 21 21 21 21 20 20 19 19 19 19 19 19 19 19 18 18 18 18 18 18 18 18 17 17 17 17 17 17 17
24 24 24 24 24 24 23 23 22 22 22 22 22 22 22 22 22 22 22 22 22 21 21 21 20 20 20 20 19 19 19 19 19 19 18 18 18 18 18 18 18 18 18 17 17 17 17 17 17
24 24 24 24 24 23 24 23 22 22 22 22 22 22 22 22 23 22 22 22 22 22 21 21 21 20 20 20 19 19 19 19 19 19 19 18 18 18 18 18 17 17 17 17 17 17 17 17 17
23 24 24 24 23 21 23 22 22 21 21 21 22 22 23 23 23 23 23 22 22 22 22 21 21 20 20 20 19 19 19 19 19 19 19 18 18 18 18 18 17 17 17 17 17 17 17 17 17
24 23 23 23 22 21 21 21 21 20 21 21 22 22 23 23 23 23 23 23 23 22 22 21 21 21 20 20 20 19 19 19 19 19 19 18 18 18 18 18 17 17 17 17 17 17 17 17 17
23 22 20 18 19 21 21 21 21 20 21 21 22 23 23 23 23 24 24 23 23 22 22 22 21 21 20 20 20 19 19 19 19 19 19 19 18 18 18 18 18 17 18 18 17 17 17 17 17
22 20 20 21 19 20 20 21 20 21 21 22 22 23 24 24 24 24 23 23 23 22 22 22 21 21 20 20 20 20 20 19 19 19 19 19 18 18 18 18 18 18 18 18 17 17 17 17 17
21 21 20 21 20 19 20 20 21 22 22 23 23 24 24 24 24 24 24 24 23 23 22 22 22 21 21 20 20 20 20 19 19 19 19 19 18 18 18 18 18 18 18 18 17 17 17 17 17
21 20 19 18 19 20 20 20 21 22 22 22 23 23 24 24 24 24 24 24 24 23 23 22 22 21 21 20 20 20 20 19 19 19 19 18 18 18 18 18 18 18 17 17 17 17 17 17 17
20 18 17 18 19 20 22 21 21 22 22 21 21 22 24 24 24 24 24 24 23 23 23 22 22 21 21 20 20 20 20 19 19 19 18 18 18 18 18 18 18 18 17 17 17 17 17 17 17
20 19 17 16 17 19 21 21 21 21 21 20 20 22 23 24 24 24 24 23 23 23 22 22 22 21 21 20 20 20 19 19 19 19 19 18 18 18 18 17 17 17 17 17 17 17 17 17 16
21 19 17 19 18 17 18 20 21 20 20 20 21 22 23 24 24 24 23 23 22 22 22 22 21 21 21 20 20 20 19 19 19 19 18 18 18 18 18 17 17 17 17 17 17 16 16 16 16
Wind_Speed
3 3 3 2 5 6 5 4 2 4 4 4 7 8 8 5 2 5 2 6 7 6 7 12 13 15 15 16 16 17 17 18 18 18 18 18 18 18 18 18 18 18 19 19 19 19 19 19 18
2 3 2 4 6 5 4 4 5 4 5 6 7 7 7 6 5 7 4 5 7 7 8 11 14 14 15 15 15 16 16 17 16 17 17 17 17 18 18 18 18 18 18 18 18 18 18 17 17
3 1 4 5 5 4 3 2 6 6 5 4 5 6 5 4 5 4 5 8 8 7 8 12 14 14 15 15 15 15 16 16 16 16 16 16 17 17 17 17 17 17 17 18 18 17 17 16 16
3 4 5 7 5 1 4 5 7 7 6 7 6 6 5 4 4 5 10 9 8 6 8 12 14 14 14 14 14 15 15 15 15 15 15 15 16 16 16 16 16 16 16 17 17 16 15 15 14
4 5 7 5 4 3 4 6 4 6 4 5 5 6 4 4 9 12 10 9 8 6 7 11 13 13 13 13 14 14 14 14 14 14 14 14 15 15 15 15 15 15 15 16 15 15 14 13 13
5 5 6 3 3 4 3 3 4 7 7 6 5 5 4 5 9 10 9 8 7 6 7 10 12 13 13 13 13 13 13 13 13 13 13 13 13 13 13 14 14 14 14 14 14 13 12 12 12
5 5 4 4 3 3 3 3 4 5 6 4 5 6 4 5 7 9 8 7 6 6 6 6 9 11 12 12 12 12 12 12 12 12 12 12 12 12 12 12 12 12 12 12 12 11 11 10 11
5 5 4 3 4 4 5 4 5 6 5 6 5 7 6 7 10 10 8 7 6 5 4 5 7 8 9 10 11 11 11 11 11 11 11 11 11 10 10 10 10 11 10 10 10 10 9 9 9
4 5 2 4 6 5 7 5 4 4 7 4 4 5 8 15 14 11 8 6 6 6 3 4 5 6 7 8 9 9 10 9 9 9 10 9 8 8 8 8 9 9 8 8 8 8 8 8 7
5 4 4 4 6 7 8 7 7 6 5 3 6 9 16 16 15 13 12 11 9 8 5 4 4 5 6 6 6 6 6 7 6 6 8 8 7 6 6 6 7 7 7 7 7 7 7 7 6
4 4 2 1 5 8 9 7 5 9 5 6 12 17 19 17 14 12 11 10 9 8 7 5 5 5 5 4 5 5 5 5 5 5 6 6 5 4 4 4 4 4 5 5 5 5 5 4 4
3 1 2 3 5 8 9 8 6 6 6 8 16 20 19 17 15 14 13 10 8 8 7 6 6 5 5 5 4 4 4 4 4 4 5 5 3 2 2 2 2 3 3 3 3 3 2 2 2
3 2 2 3 7 8 8 6 5 3 5 14 17 17 17 16 12 10 9 8 8 8 8 7 6 6 5 5 4 4 4 4 4 4 5 5 4 2 2 1 1 1 1 1 1 1 1 1 1
1 2 3 4 6 5 7 3 4 4 12 15 16 15 15 15 12 9 8 8 9 9 8 7 8 7 6 4 4 4 5 5 5 5 5 6 5 4 3 2 1 1 1 1 0 0 0 0 0
2 5 7 5 4 4 7 3 2 7 14 15 15 14 14 12 12 13 13 11 10 9 8 8 8 7 7 6 6 5 6 6 5 6 6 7 7 5 4 2 2 3 2 2 1 0 0 0 1
5 6 4 3 3 3 7 5 4 10 14 13 13 13 13 12 13 12 12 11 10 9 9 9 9 8 7 6 5 5 6 7 7 7 7 8 8 7 5 3 3 4 3 2 1 1 0 1 1
7 3 1 3 1 3 4 4 5 11 13 12 12 12 12 11 11 11 12 12 11 11 10 9 8 8 7 6 5 5 5 6 7 7 7 8 8 8 6 4 4 4 3 2 2 1 1 1 2
2 2 1 3 2 2 2 3 5 11 12 12 11 11 11 13 14 11 11 11 10 10 9 9 8 7 6 4 3 2 2 3 5 6 8 9 9 8 7 5 5 4 3 2 2 2 1 2 2
6 4 2 3 2 2 3 4 5 10 10 11 11 11 13 14 10 9 10 10 9 8 9 9 8 7 6 4 3 3 3 3 3 5 8 8 8 8 7 5 4 4 3 4 3 2 2 1 1
5 3 0 2 3 2 2 4 2 9 13 13 13 13 13 11 8 10 10 10 11 11 10 9 9 9 8 6 4 3 3 2 3 3 5 7 8 7 7 5 4 4 3 3 3 3 2 1 1
3 5 4 2 3 5 3 5 2 4 5 7 9 10 10 12 12 11 12 12 12 12 12 11 10 9 8 7 4 3 2 1 1 2 2 5 7 7 7 6 5 4 4 4 4 4 4 3 2
4 5 6 4 4 2 2 2 6 4 5 8 10 10 12 12 11 10 12 12 13 13 11 10 10 8 8 7 7 6 5 5 5 3 3 4 6 7 8 7 6 5 4 4 5 4 3 3 3
6 3 5 4 4 2 2 2 8 2 5 11 13 13 12 12 12 12 13 13 12 11 11 10 9 9 8 8 8 7 6 5 3 2 3 4 4 5 7 7 6 5 4 5 4 3 4 3 4
6 7 8 7 5 1 3 3 6 5 8 8 10 11 11 12 12 12 10 9 9 9 9 9 9 8 8 8 8 8 8 6 4 4 4 4 3 3 5 6 5 5 4 4 4 4 4 4 4
6 7 4 4 3 5 3 3 9 8 8 9 10 10 11 11 12 11 11 11 11 10 10 9 9 8 8 8 9 9 8 7 7 6 5 5 4 4 5 5 5 5 5 5 4 3 4 4 4
6 10 9 6 5 4 1 5 8 7 6 6 7 6 6 8 10 12 12 12 12 12 11 10 10 9 9 9 9 7 7 5 5 5 5 5 5 5 4 5 5 5 5 5 4 3 3 3 4
8 5 8 8 4 1 4 7 8 5 5 4 3 3 5 8 10 11 11 11 11 12 12 11 11 9 8 8 7 6 6 6 6 5 4 3 3 3 3 4 4 4 3 3 3 3 3 2 3
7 10 7 7 6 2 4 5 5 6 7 5 3 3 3 3 5 7 8 9 9 10 9 9 9 9 8 7 7 6 6 6 5 4 4 3 3 2 2 3 3 2 3 3 3 2 2 2 2
6 6 6 6 6 7 3 7 6 8 6 5 4 3 2 3 5 6 6 7 8 8 8 8 7 7 6 7 6 5 4 4 4 4 4 3 2 2 2 3 3 2 1 2 2 2 2 2 1
6 9 9 7 4 5 5 7 6 5 4 3 2 1 1 3 4 6 7 7 7 7 7 7 7 6 6 6 5 5 4 3 3 3 2 2 2 2 2 2 2 2 1 2 2 2 2 2 1
Wind_Direction
241 155 137 96 58 50 37 9 59 68 55 54 79 85 89 67 86 127 116 124 119 114 120 118 113 110 107 104 103 103 103 102 102 103 103 104 104 103 103 103 103 102 101 101 101 101 101 102 104
166 148 98 63 74 65 16 10 74 84 132 117 77 72 71 64 67 102 120 126 120 122 121 123 119 115 112 109 107 106 105 105 105 104 104 104 104 104 104 104 104 103 102 102 102 102 103 104 105
160 123 79 67 74 120 130 113 114 109 93 76 77 64 71 93 113 124 141 129 115 118 124 128 122 119 116 114 111 110 109 109 108 107 107 107 106 105 105 105 105 105 104 103 103 104 104 105 105
103 53 55 65 62 70 154 156 134 112 67 54 85 71 69 91 124 130 132 128 121 118 127 131 127 123 120 117 114 113 112 111 111 110 109 108 107 106 106 106 105 105 105 105 104 104 104 105 106
64 73 59 53 41 49 111 140 123 102 85 71 83 83 53 39 105 121 127 129 128 120 129 133 130 128 124 121 119 117 115 114 113 112 112 111 110 108 108 108 107 107 107 106 104 103 102 102 105
56 65 76 73 60 70 103 98 89 90 94 91 85 88 60 104 118 129 126 124 123 121 125 134 134 132 129 124 122 121 120 118 116 114 113 112 111 110 110 110 110 109 108 107 105 103 102 102 107
92 84 106 122 111 121 149 97 100 113 108 111 108 97 99 129 127 125 119 116 113 114 116 122 133 135 133 129 127 126 123 122 120 118 116 113 112 112 112 113 113 112 111 110 108 104 103 106 113
115 96 87 120 143 163 143 105 109 117 107 118 113 133 158 163 133 118 111 108 112 108 108 113 119 125 128 133 135 132 129 127 125 123 120 117 114 113 115 114 116 114 112 111 109 106 104 106 114
90 76 130 181 167 164 140 126 133 97 117 129 114 137 147 140 134 130 130 132 143 147 125 120 120 124 130 137 142 139 135 132 127 124 121 108 99 102 109 116 116 115 112 111 108 104 100 96 100
82 111 205 197 172 155 146 141 150 125 134 107 89 103 129 142 148 153 160 166 170 172 171 152 140 139 138 139 129 127 124 124 119 113 110 106 103 102 105 112 116 114 110 108 102 94 92 88 85
103 153 207 172 154 136 138 144 142 137 182 185 154 146 150 154 160 167 173 177 179 176 177 170 162 155 144 130 131 126 124 124 123 123 119 114 105 97 87 84 87 90 91 83 80 77 85 91 97
100 205 166 150 139 134 146 145 138 171 207 162 152 152 157 164 172 178 180 182 175 174 185 178 168 160 160 150 147 146 144 141 143 148 146 138 126 109 98 82 73 68 74 76 69 71 74 77 102
56 358 9 124 129 130 125 133 143 178 130 131 142 152 165 173 179 185 182 178 174 182 188 179 172 175 170 162 169 168 172 171 173 173 177 172 167 158 148 133 109 79 84 86 75 71 59 50 64
19 30 25 83 111 124 127 113 108 157 134 138 152 164 173 178 178 176 179 183 185 189 190 181 182 184 175 174 181 180 186 190 190 199 203 196 189 181 174 175 189 222 216 202 157 120 70 312 272
54 60 44 44 90 122 113 84 189 159 145 152 165 172 179 183 183 187 189 189 190 189 187 186 188 183 182 188 193 191 192 193 198 209 212 207 204 196 186 187 203 219 214 198 164 67 68 263 278
51 64 58 324 71 117 130 205 203 158 157 166 175 179 185 193 196 195 192 190 188 184 185 194 194 183 189 193 194 195 194 194 202 209 211 213 214 206 192 193 215 220 209 187 172 180 204 266 263
39 91 128 306 19 123 147 214 193 166 169 178 184 188 192 199 205 201 194 192 189 187 184 188 188 183 188 190 191 198 195 197 202 205 209 212 213 209 201 209 221 216 202 199 213 196 197 230 249
158 131 183 237 260 133 180 234 189 178 182 189 192 196 199 206 211 201 194 193 190 187 184 183 182 182 175 171 166 173 187 201 201 205 209 207 208 208 205 215 217 205 198 205 206 214 217 222 237
148 144 195 248 268 161 226 247 202 184 193 200 202 204 208 215 209 193 193 189 182 182 183 183 180 178 170 166 171 175 199 205 207 214 213 210 212 209 207 218 207 199 205 216 204 196 215 237 193
129 127 208 326 12 128 247 293 227 191 203 205 207 210 213 213 201 195 191 188 188 187 189 187 186 184 185 183 175 171 165 191 211 217 210 210 212 213 216 213 209 203 209 220 208 187 185 219 170
153 173 193 204 14 35 69 338 280 233 223 226 224 219 216 213 207 199 194 194 192 193 193 195 193 193 192 179 151 133 112 103 172 214 213 210 210 212 217 215 213 209 203 215 214 197 191 214 219
209 211 173 143 95 322 80 267 284 240 232 232 231 221 218 215 207 201 197 195 196 198 192 189 190 192 192 178 177 177 184 198 210 205 209 216 214 215 217 216 213 214 215 218 222 204 199 195 226
190 138 129 124 128 70 28 146 287 302 245 244 237 228 221 209 201 201 201 198 197 192 188 189 187 190 188 186 191 189 199 204 198 194 203 217 219 219 220 218 214 216 221 224 223 206 205 204 217
132 77 59 51 76 89 237 167 275 241 231 249 239 228 219 206 201 202 198 186 189 187 187 186 183 190 187 187 194 198 204 202 197 205 209 215 220 223 222 217 215 219 222 225 223 215 212 215 222
106 96 51 22 23 247 268 188 249 255 244 240 241 230 218 203 197 196 190 184 185 186 188 188 187 194 190 190 199 203 205 202 207 212 212 210 216 223 225 217 217 218 221 222 215 213 222 216 222
159 139 153 177 204 266 316 231 256 270 277 261 245 233 209 195 195 196 194 188 187 187 188 187 191 197 193 198 207 206 202 203 213 212 210 212 220 226 222 214 217 220 218 219 205 210 222 220 228
131 150 152 129 147 130 280 287 302 305 323 312 277 213 199 196 194 194 190 182 183 185 190 188 191 195 197 200 201 203 202 206 212 209 207 215 222 228 222 214 211 211 210 211 201 211 223 217 229
138 141 108 120 140 204 291 284 260 280 288 296 289 243 216 186 186 186 182 177 178 184 185 183 189 195 198 198 200 205 202 207 206 198 203 210 216 215 204 200 193 198 206 206 196 202 218 208 233
112 102 108 113 143 150 210 268 234 237 252 262 269 261 208 175 172 168 168 168 168 170 174 178 183 190 194 195 195 196 194 195 185 186 197 197 192 186 188 183 181 185 189 173 171 183 181 181 223
149 157 146 146 176 160 164 260 278 255 259 241 262 301 122 143 143 140 147 149 156 162 164 167 173 184 191 183 175 179 175 169 170 179 183 172 168 159 165 156 152 152 145 140 154 171 170 155 157
Height
1491 1490 1491 1493 1498 1512 1519 1513 1508 1509 1511 1512 1512 1513 1516 1521 1524 1530 1528 1528 1530 1531 1532 1534 1534 1535 1536 1537 1537 1538 1539 1540 1541 1542 1543 1544 1544 1545 1546 1547 1548 1549 1550 1551 1552 1553 1554 1555 1556
1491 1491 1494 1495 1509 1528 1524 1514 1512 1511 1512 1513 1514 1516 1518 1522 1523 1525 1527 1530 1532 1533 1535 1536 1537 1538 1539 1540 1540 1541 1542 1543 1544 1545 1546 1547 1548 1548 1549 1550 1551 1552 1553 1554 1555 1556 1557 1558 1559
1492 1493 1495 1500 1516 1526 1522 1514 1512 1513 1513 1514 1516 1519 1521 1524 1525 1527 1529 1531 1533 1535 1537 1538 1539 1540 1541 1542 1543 1544 1545 1546 1547 1548 1549 1550 1551 1551 1552 1553 1554 1555 1556 1557 1558 1559 1561 1562 1563
1494 1495 1498 1509 1518 1515 1514 1513 1512 1513 1515 1516 1518 1522 1525 1528 1528 1529 1531 1533 1535 1537 1539 1540 1542 1543 1544 1545 1546 1547 1548 1549 1550 1551 1552 1553 1554 1554 1555 1556 1557 1558 1559 1560 1561 1563 1564 1565 1566
1494 1496 1508 1519 1518 1513 1512 1513 1514 1514 1517 1519 1520 1524 1528 1530 1531 1532 1533 1535 1537 1539 1541 1543 1544 1545 1547 1548 1549 1550 1551 1552 1553 1554 1555 1556 1557 1557 1558 1559 1560 1561 1562 1563 1564 1565 1567 1568 1568
1496 1499 1520 1527 1520 1515 1514 1515 1516 1517 1519 1522 1523 1526 1530 1532 1533 1534 1536 1538 1540 1541 1543 1545 1546 1548 1549 1550 1551 1553 1554 1555 1556 1557 1558 1558 1559 1560 1561 1562 1563 1564 1565 1566 1567 1568 1569 1570 1571
1499 1507 1520 1522 1521 1519 1517 1517 1518 1519 1521 1523 1524 1527 1531 1533 1535 1536 1538 1540 1542 1544 1545 1547 1549 1550 1551 1553 1554 1555 1556 1557 1558 1559 1560 1561 1562 1563 1564 1565 1566 1567 1568 1569 1570 1571 1572 1573 1573
1499 1507 1518 1521 1521 1520 1517 1518 1520 1521 1523 1525 1526 1528 1531 1534 1536 1538 1540 1542 1544 1546 1547 1549 1550 1552 1553 1555 1556 1558 1559 1560 1561 1562 1563 1564 1564 1565 1566 1567 1568 1569 1570 1571 1572 1573 1574 1575 1576
1501 1513 1523 1518 1518 1517 1516 1518 1521 1522 1524 1526 1527 1528 1530 1533 1536 1539 1541 1543 1545 1547 1549 1551 1552 1554 1555 1557 1558 1560 1561 1562 1563 1564 1565 1566 1567 1568 1569 1570 1571 1572 1572 1573 1574 1575 1576 1577 1578
1502 1517 1514 1509 1509 1511 1514 1517 1520 1523 1525 1526 1527 1529 1532 1534 1537 1539 1541 1543 1545 1547 1550 1552 1554 1556 1557 1558 1560 1561 1563 1564 1565 1566 1567 1568 1569 1570 1571 1572 1573 1574 1575 1576 1576 1577 1578 1579 1580
1503 1509 1507 1506 1507 1509 1514 1518 1520 1522 1525 1524 1525 1528 1531 1534 1537 1540 1542 1544 1546 1549 1551 1553 1555 1557 1558 1560 1562 1563 1564 1566 1567 1568 1569 1570 1571 1572 1573 1574 1575 1576 1577 1577 1578 1579 1580 1581 1582
1504 1505 1505 1506 1507 1510 1513 1517 1520 1521 1521 1522 1525 1527 1531 1534 1537 1540 1542 1545 1548 1550 1552 1554 1556 1558 1560 1561 1563 1564 1566 1567 1568 1570 1571 1572 1573 1574 1575 1576 1577 1578 1578 1579 1580 1581 1582 1582 1583
1504 1505 1505 1506 1508 1511 1514 1517 1519 1521 1522 1523 1527 1530 1533 1535 1538 1542 1544 1547 1549 1551 1553 1555 1557 1559 1561 1562 1564 1565 1567 1569 1570 1571 1572 1573 1574 1575 1576 1577 1578 1579 1580 1581 1582 1582 1583 1583 1584
1506 1506 1506 1508 1510 1513 1516 1519 1520 1522 1523 1525 1528 1531 1534 1536 1539 1542 1544 1546 1549 1551 1554 1556 1558 1560 1562 1563 1565 1566 1568 1570 1571 1572 1574 1575 1576 1577 1578 1578 1579 1580 1581 1582 1583 1583 1584 1584 1584
1506 1508 1510 1511 1512 1515 1518 1523 1522 1522 1524 1526 1529 1532 1534 1537 1539 1541 1544 1546 1549 1551 1554 1556 1558 1560 1562 1564 1566 1567 1569 1571 1572 1573 1574 1575 1576 1577 1578 1579 1580 1581 1582 1582 1583 1584 1584 1584 1585
1508 1515 1522 1516 1514 1515 1521 1529 1521 1522 1524 1527 1530 1532 1534 1537 1538 1541 1544 1547 1549 1551 1554 1556 1558 1560 1563 1564 1566 1568 1569 1571 1572 1573 1574 1575 1577 1578 1579 1579 1580 1581 1582 1582 1583 1584 1584 1584 1584
1521 1528 1527 1521 1515 1516 1520 1525 1520 1522 1524 1527 1529 1532 1534 1536 1538 1540 1543 1546 1549 1551 1553 1556 1558 1560 1562 1564 1566 1568 1569 1570 1572 1573 1574 1575 1576 1577 1578 1579 1580 1581 1582 1582 1583 1583 1583 1583 1584
1529 1528 1527 1525 1517 1517 1521 1522 1520 1522 1524 1526 1529 1531 1533 1534 1535 1539 1542 1545 1548 1551 1553 1555 1558 1560 1562 1564 1565 1567 1568 1570 1571 1572 1574 1575 1576 1577 1578 1579 1580 1580 1581 1581 1582 1582 1582 1582 1583
1519 1524 1527 1523 1516 1518 1521 1522 1521 1522 1524 1526 1528 1529 1530 1531 1535 1538 1541 1544 1547 1550 1552 1554 1556 1558 1560 1562 1564 1565 1567 1569 1570 1571 1573 1574 1575 1576 1577 1578 1578 1579 1580 1580 1581 1581 1581 1581 1581
1518 1524 1526 1522 1517 1519 1523 1523 1521 1521 1521 1522 1524 1526 1527 1530 1533 1536 1538 1541 1544 1547 1550 1552 1554 1557 1558 1560 1562 1564 1566 1567 1569 1570 1571 1572 1574 1575 1576 1576 1577 1577 1578 1579 1579 1579 1580 1580 1580
1520 1523 1524 1524 1521 1521 1524 1529 1524 1521 1521 1523 1523 1524 1526 1527 1529 1532 1535 1538 1541 1544 1547 1550 1553 1556 1557 1559 1561 1563 1564 1565 1567 1568 1570 1571 1572 1573 1574 1574 1575 1576 1576 1577 1577 1577 1578 1578 1578
1523 1515 1517 1522 1530 1538 1532 1547 1529 1523 1521 1520 1519 1521 1521 1524 1527 1529 1532 1534 1537 1541 1544 1548 1551 1553 1555 1557 1559 1560 1561 1562 1564 1566 1568 1569 1570 1570 1571 1572 1572 1573 1574 1574 1575 1575 1575 1575 1575
1514 1512 1517 1522 1531 1540 1538 1546 1537 1524 1523 1517 1514 1515 1516 1519 1522 1525 1527 1531 1535 1538 1542 1545 1548 1550 1553 1555 1556 1558 1559 1561 1562 1564 1565 1566 1567 1568 1568 1569 1570 1570 1571 1572 1572 1572 1572 1573 1573
1509 1517 1525 1534 1541 1553 1542 1546 1542 1529 1519 1512 1509 1510 1511 1514 1518 1521 1525 1529 1532 1536 1540 1543 1545 1548 1551 1553 1554 1556 1557 1558 1560 1561 1562 1563 1564 1565 1566 1566 1567 1567 1568 1568 1569 1569 1569 1570 1570
1511 1530 1550 1553 1562 1558 1542 1543 1538 1515 1509 1507 1505 1505 1506 1510 1514 1517 1521 1525 1529 1533 1537 1540 1543 1545 1548 1550 1551 1553 1554 1556 1557 1558 1559 1560 1561 1562 1562 1563 1563 1564 1564 1565 1565 1565 1566 1566 1566
1513 1523 1548 1560 1563 1557 1544 1543 1526 1508 1504 1503 1502 1502 1504 1507 1510 1514 1517 1522 1526 1529 1533 1537 1539 1542 1545 1547 1549 1550 1552 1553 1554 1555 1556 1557 1558 1558 1559 1559 1560 1560 1561 1561 1562 1562 1562 1562 1562
1515 1523 1525 1545 1551 1554 1549 1536 1519 1506 1504 1502 1501 1501 1502 1504 1507 1511 1515 1519 1523 1526 1530 1533 1537 1539 1542 1544 1546 1548 1549 1550 1551 1552 1553 1554 1555 1555 1556 1556 1556 1557 1557 1558 1558 1558 1558 1558 1558
1504 1516 1532 1545 1559 1559 1546 1540 1532 1513 1508 1504 1502 1501 1501 1503 1506 1509 1513 1516 1520 1524 1528 1531 1534 1537 1540 1542 1544 1545 1546 1547 1548 1549 1550 1551 1552 1553 1553 1553 1553 1553 1554 1554 1554 1554 1554 1554 1554
1511 1519 1528 1542 1544 1558 1556 1543 1514 1509 1505 1503 1501 1500 1501 1503 1505 1507 1511 1515 1519 1522 1526 1529 1532 1535 1537 1539 1541 1543 1544 1545 1546 1546 1547 1548 1549 1550 1550 1550 1550 1551 1551 1551 1551 1551 1551 1551 1551
1499 1509 1521 1535 1545 1548 1550 1540 1505 1504 1502 1501 1501 1501 1501 1503 1505 1507 1510 1514 1518 1521 1524 1527 1529 1532 1535 1537 1539 1540 1541 1542 1543 1544 1545 1545 1546 1547 1547 1548 1548 1548 1549 1549 1549 1548 1549 1549 1549